Copper Harbor, MI

8:33 PM EDT on April 29, 2017 (GMT -0400)
Copper Harbor

Weather History for KP59 - December, 2013

Change the Weather History Date:

Monday, December 9, 2013

  Actual Average Record
Temperature  
Mean Temperature 14 °F -  
Max Temperature 19 °F 32 °F 45 °F (2006)
Min Temperature 9 °F 23 °F 8 °F (2002)
Degree Days  
Heating Degree Days 51    
Moisture  
Dew Point 10 °F    
Average Humidity 85    
Maximum Humidity 92    
Minimum Humidity 80    
Precipitation  
Precipitation 0.43 in - - ()
Sea Level Pressure  
Sea Level Pressure 29.84 in    
Wind  
Wind Speed 6 mph (WNW)    
Max Wind Speed 26 mph    
Max Gust Speed 36 mph    
Averages and records for this station are not official NWS values.
T = Trace of Precipitation, MM = Missing Value Source: NWS Daily Summary

Daily Weather History Graph

Daily Weather History Graph

Search for Another Location

Airport or City:

Trip Planner

Search our weather history database for the weather conditions in past years. The results will help you decide how hot, cold, wet, or windy it might be!

Date:

Astronomy

Dec. 09, 2013 Rise Set
Actual Time 8:27 AM EST 5:00 PM EST
Civil Twilight 7:51 AM EST 5:36 PM EST
Nautical Twilight 7:12 AM EST 6:15 PM EST
Astronomical Twilight 6:35 AM EST 6:52 PM EST
Moon 12:55 PM EST (12/9) 12:11 AM EST (12/9)
Length of Visible Light 9h 44m
Length of Day
8h 33m
Waxing Crescent, 51% of the Moon is Illuminated
Dec 9
Waxing Crescent
Dec 17
Full
Dec 25
Last Quarter
Jan 1
New
Jan 7
First Quarter

Hourly Weather History & Observations

Time (EST) Temp. Windchill Dew Point Humidity Pressure Visibility Wind Dir Wind Speed Gust Speed Precip Events Conditions
12:51 AM 15.1 °F - 10.9 °F 84% 30.06 in - Calm Calm - N/A   Unknown
1:51 AM 10.0 °F 3.6 °F 8.1 °F 92% 30.02 in - SW 3.5 mph - N/A   Unknown
2:51 AM 10.9 °F - 8.1 °F 88% 29.99 in - Calm Calm - N/A   Unknown
3:51 AM 12.9 °F 6.9 °F 10.0 °F 88% 29.96 in - West 3.5 mph - N/A   Unknown
4:51 AM 12.9 °F 6.9 °F 10.0 °F 88% 29.90 in - WSW 3.5 mph - N/A   Unknown
5:51 AM 14.0 °F 6.5 °F 10.9 °F 88% 29.88 in - WSW 4.6 mph - N/A   Unknown
6:51 AM 15.1 °F 9.4 °F 10.9 °F 84% 29.84 in - WSW 3.5 mph - N/A   Unknown
7:51 AM 15.1 °F 6.4 °F 10.9 °F 84% 29.81 in - WSW 5.8 mph - N/A   Unknown
8:51 AM 15.1 °F 5.2 °F 10.9 °F 84% 29.79 in - West 6.9 mph - N/A   Unknown
9:51 AM 18.0 °F 9.8 °F 12.9 °F 81% 29.77 in - West 5.8 mph - N/A   Unknown
10:51 AM 19.0 °F 11.1 °F 16.0 °F 88% 29.76 in - Variable 5.8 mph - 0.06 in   Unknown
11:51 AM 19.0 °F 6.1 °F 16.0 °F 88% 29.74 in - NNW 12.7 mph 24.2 mph 0.04 in   Unknown
12:51 PM 18.0 °F 8.7 °F 15.1 °F 88% 29.72 in - Variable 6.9 mph - 0.05 in   Unknown
1:51 PM 16.0 °F 5.3 °F 12.9 °F 88% 29.71 in - West 8.1 mph - 0.07 in   Unknown
2:51 PM 15.1 °F 4.2 °F 10.0 °F 80% 29.71 in - West 8.1 mph - 0.05 in   Unknown
3:51 PM 12.9 °F 0.7 °F 9.0 °F 84% 29.73 in - West 9.2 mph 19.6 mph 0.05 in   Unknown
4:51 PM 12.0 °F -2.0 °F 9.0 °F 88% 29.76 in - WNW 11.5 mph 32.2 mph 0.03 in   Unknown
5:51 PM 9.0 °F -0.9 °F 3.9 °F 80% 29.81 in - Variable 5.8 mph 16.1 mph 0.05 in   Unknown
6:51 PM 12.0 °F -4.5 °F 9.0 °F 88% 29.83 in - NNW 16.1 mph 27.6 mph 0.02 in   Unknown
7:51 PM 12.0 °F -6.9 °F 9.0 °F 88% 29.85 in - NNW 21.9 mph 35.7 mph 0.01 in   Unknown
8:51 PM 12.0 °F -5.1 °F 7.0 °F 80% 29.89 in - NNW 17.3 mph 34.5 mph N/A   Unknown
9:51 PM 10.9 °F -7.0 °F 7.0 °F 84% 29.92 in - NNW 18.4 mph 35.7 mph N/A   Unknown
10:51 PM 12.9 °F -7.3 °F 8.1 °F 81% 29.90 in - North 26.5 mph 35.7 mph N/A   Unknown
11:51 PM 12.0 °F -6.9 °F 8.1 °F 84% 29.91 in - NNW 21.9 mph 31.1 mph N/A   Unknown